User: anonymous   Login
Location: Ku?niki
(51.4449°N, 17.8974°E)
Time: 13:42:08
(UTC+00:00)
Language:

AAUSAT CUBESAT 2 - Orbit

View from above orbital plane
View from above orbital plane
View from above satellite
View from above satellite

Ground track
Ground track

The orbit data is extracted from the following two-line orbital elements,

1 32788U 08021F   22182.87022824  .00001043  00000-0  94038-4 0  9993
2 32788  97.5334 167.6757 0012818  75.2125 285.0517 14.97573657770592
Epoch (UTC): 01 July 2022 20:53:07
Eccentricity: 0.0012818
inclination: 97.5334°
perigee height: 565 km
apogee height: 583 km
right ascension of ascending node: 167.6757°
argument of perigee: 75.2125°
revolutions per day: 14.97573657
mean anomaly at epoch: 285.0517°
orbit number at epoch: 77059

The dashed part of the orbit path shows where the satellite is in the earth's shadow,  

DLR